Location: Unspecified
(6.9244°S, 0.0000°E)
Time: 04:35:48
(UTC+00:00)

Vanguard 2 Rocket - Visible Passes

Search period start: 04 April 2026 00:00
Search period end: 14 April 2026 00:00
Orbit: 554 x 3286 km, 32.9° (Epoch: 29 March)

Date Brightness Start Highest point End Pass type
(mag) Time Alt. Az. Time Alt. Az. Time Alt. Az.
4 Apr 8.2 18:18:18 10° SW 18:32:55 85° SSE 18:40:51 10° ENE visible
4 Apr 9.2 20:39:13 10° W 20:45:43 20° NW 20:47:27 19° NNW visible
5 Apr 8.8 19:29:34 10° WSW 19:40:52 42° NW 19:46:42 14° NNE visible
6 Apr 9.9 04:41:22 10° NNE 04:44:38 13° NE 04:48:33 10° ENE visible
6 Apr 8.6 18:20:35 10° WSW 18:35:27 71° NW 18:43:38 10° NE visible
6 Apr 9.6 20:44:23 10° WNW 20:48:05 13° NW 20:51:10 10° NNW visible
7 Apr 9.4 19:32:57 10° W 19:43:05 29° NW 19:49:35 10° NNE visible
8 Apr 9.5 04:42:04 10° N 04:46:59 20° NE 04:53:55 10° E visible
8 Apr 9.2 18:23:11 10° WSW 18:37:45 52° NW 18:46:09 10° NNE visible
9 Apr 9.7 19:37:05 10° W 19:45:20 20° NW 19:51:12 10° N visible
10 Apr 9.1 04:43:46 10° NNW 04:49:16 30° NE 04:57:53 10° E visible
10 Apr 9.7 18:26:13 10° WSW 18:39:55 38° NW 18:48:21 10° NNE visible
11 Apr 9.4 03:42:10 10° NNE 03:44:33 12° NE 03:47:21 10° ENE visible
11 Apr 10.1 19:42:33 10° WNW 19:47:43 14° NW 19:51:56 10° NNW visible
12 Apr 8.4 04:45:58 10° NNW 04:51:35 45° NE 05:01:07 10° ESE visible
12 Apr 9.9 18:29:51 10° W 18:42:04 28° NW 18:50:15 10° NNE visible
13 Apr 8.8 03:44:37 16° NNE 03:46:56 20° NE 03:52:22 10° E visible
